Find Starlink 33715

NORAD ID: 63441 Int'l Des: 2025-069 Owner: SPXS Country: US Constellation: starlink operational
LEOCIRCULAR

当前视图

正在加载3D地球...

About Starlink 33715

Starlink 33715 (NORAD 63441) is a starlink constellation satellite (v2 mini) launched Apr 4, 2025 by SPXS of US. It operates in LEO, CIRCULAR orbit with a mass of 575.00 kg.

关于 Starlink 33715

正在加载描述...

即将过境

Passes for default location (London). Set your location on the main map for personalized predictions.

高度历史

Loading altitude history...

两行轨道根数

1 63441U 25069J 26195.55423614 .00009722 00000-0 29855-3 0 9995
2 63441 53.1574 265.6977 0000974 100.2671 259.8442 15.34392205 72933
Epoch: Jul 14, 2026 • Age: 15 hours

当前状态

高度 476.0 km
远地点 / 近地点 N/A
速度 7.63 km/s
星下点 -39.25°S, 121.56°E
发射日期 Apr 4, 2025
运行时间 1.2 years
类型 internet

技术详情

分类 Payload
质量 575.00 kg
干质量 530.00 kg
总质量 575.00 kg
长度 0.30 m
直径 4.10 m
跨度 29.00 m
形状 Box + pan
制造商 SPXS
平台类型 Starlink V2MO
阶段状态 In Orbit
所有者/国家 SPXS/US

Most Searched